Location: Niagara
(43.2500°N, 79.0670°W)
Time: 10:57:28
(UTC-04:00)

Envisat - Pass Details

Date: 11 October 2017
Orbit: 764 x 766 km, 98.2° (Epoch: 17 October)

Event Time Altitude Azimuth Distance (km) Brightness Sun altitude
Exits shadow 20:30:43 45° 84° (E) 1,038 3.2 -21.0°
Maximum altitude 20:31:06 46° 70° (ENE) 1,025 3.2 -21.1°
Drops below altitude 10° 20:35:56 10° 359° (N) 2,311 5.6 -21.9°
Sets 20:38:19 0° 353° (N) 3,241 6.5 -22.4°
